Year,Month,Day,Hour,Minute,Value (Times are PST for temperature in C)
2012,08,11,00,00,19.10
2012,08,11,00,01,19.10
2012,08,11,00,02,19.10
2012,08,11,00,03,19.10
2012,08,11,00,04,19.10
2012,08,11,00,05,19.10
2012,08,11,00,06,19.00
2012,08,11,00,07,19.00
2012,08,11,00,08,19.00
2012,08,11,00,09,19.00
2012,08,11,00,10,19.00
2012,08,11,00,11,19.00
2012,08,11,00,12,18.90
2012,08,11,00,13,18.90
2012,08,11,00,14,18.90
2012,08,11,00,15,18.90
2012,08,11,00,16,18.90
2012,08,11,00,17,18.80
2012,08,11,00,18,18.80
2012,08,11,00,19,18.80
2012,08,11,00,20,18.80
2012,08,11,00,21,18.80
2012,08,11,00,22,18.80
2012,08,11,00,23,18.80
2012,08,11,00,24,18.80
2012,08,11,00,25,18.80
2012,08,11,00,26,18.80
2012,08,11,00,27,18.80
2012,08,11,00,28,18.80
2012,08,11,00,29,18.80
2012,08,11,00,30,18.70
2012,08,11,00,31,18.70
2012,08,11,00,32,18.70
2012,08,11,00,33,18.60
2012,08,11,00,34,18.60
2012,08,11,00,35,18.60
2012,08,11,00,36,18.50
2012,08,11,00,37,18.50
2012,08,11,00,38,18.50
2012,08,11,00,39,18.40
2012,08,11,00,40,18.40
2012,08,11,00,41,18.40
2012,08,11,00,42,18.30
2012,08,11,00,43,18.30
2012,08,11,00,44,18.30
2012,08,11,00,45,18.30
2012,08,11,00,46,18.30
2012,08,11,00,47,18.20
2012,08,11,00,48,18.20
2012,08,11,00,49,18.20
2012,08,11,00,50,18.20
2012,08,11,00,51,18.20
2012,08,11,00,52,18.10
2012,08,11,00,53,18.20
2012,08,11,00,54,18.10
2012,08,11,00,55,18.20
2012,08,11,00,56,18.20
2012,08,11,00,57,18.20
2012,08,11,00,58,18.20
2012,08,11,00,59,18.20
2012,08,11,01,00,18.20
2012,08,11,01,01,18.20
2012,08,11,01,02,18.20
2012,08,11,01,03,18.20
2012,08,11,01,04,18.10
2012,08,11,01,05,18.10
2012,08,11,01,06,18.10
2012,08,11,01,07,18.00
2012,08,11,01,08,18.00
2012,08,11,01,09,17.90
2012,08,11,01,10,17.90
2012,08,11,01,11,17.90
2012,08,11,01,12,17.90
2012,08,11,01,13,17.80
2012,08,11,01,14,17.80
2012,08,11,01,15,17.80
2012,08,11,01,16,17.80
2012,08,11,01,17,17.70
2012,08,11,01,18,17.70
2012,08,11,01,19,17.70
2012,08,11,01,20,17.70
2012,08,11,01,21,17.70
2012,08,11,01,22,17.60
2012,08,11,01,23,17.60
2012,08,11,01,24,17.60
2012,08,11,01,25,17.60
2012,08,11,01,26,17.50
2012,08,11,01,27,17.50
2012,08,11,01,28,17.50
2012,08,11,01,29,17.40
2012,08,11,01,30,17.40
2012,08,11,01,31,17.40
2012,08,11,01,32,17.40
2012,08,11,01,33,17.40
2012,08,11,01,34,17.30
2012,08,11,01,35,17.30
2012,08,11,01,36,17.30
2012,08,11,01,37,17.30
2012,08,11,01,38,17.30
2012,08,11,01,39,17.20
2012,08,11,01,40,17.20
2012,08,11,01,41,17.20
2012,08,11,01,42,17.20
2012,08,11,01,43,17.20
2012,08,11,01,44,17.20
2012,08,11,01,45,17.10
2012,08,11,01,46,17.10
2012,08,11,01,47,17.10
2012,08,11,01,48,17.10
2012,08,11,01,49,17.10
2012,08,11,01,50,17.10
2012,08,11,01,51,17.10
2012,08,11,01,52,17.10
2012,08,11,01,53,17.10
2012,08,11,01,54,17.10
2012,08,11,01,55,17.10
2012,08,11,01,56,17.10
2012,08,11,01,57,17.10
2012,08,11,01,58,17.20
2012,08,11,01,59,17.20
2012,08,11,02,00,17.20
2012,08,11,02,01,17.20
2012,08,11,02,02,17.30
2012,08,11,02,03,17.30
2012,08,11,02,04,17.30
2012,08,11,02,05,17.40
2012,08,11,02,06,17.40
2012,08,11,02,07,17.40
2012,08,11,02,08,17.40
2012,08,11,02,09,17.40
2012,08,11,02,10,17.40
2012,08,11,02,11,17.50
2012,08,11,02,12,17.50
2012,08,11,02,13,17.50
2012,08,11,02,14,17.50
2012,08,11,02,15,17.50
2012,08,11,02,16,17.40
2012,08,11,02,17,17.40
2012,08,11,02,18,17.40
2012,08,11,02,19,17.40
2012,08,11,02,20,17.40
2012,08,11,02,21,17.40
2012,08,11,02,22,17.30
2012,08,11,02,23,17.30
2012,08,11,02,24,17.30
2012,08,11,02,25,17.30
2012,08,11,02,26,17.30
2012,08,11,02,27,17.30
2012,08,11,02,28,17.40
2012,08,11,02,29,17.40
2012,08,11,02,30,17.40
2012,08,11,02,31,17.40
2012,08,11,02,32,17.40
2012,08,11,02,33,17.40
2012,08,11,02,34,17.40
2012,08,11,02,35,17.40
2012,08,11,02,36,17.40
2012,08,11,02,37,17.40
2012,08,11,02,38,17.40
2012,08,11,02,39,17.40
2012,08,11,02,40,17.40
2012,08,11,02,41,17.40
2012,08,11,02,42,17.40
2012,08,11,02,43,17.40
2012,08,11,02,44,17.40
2012,08,11,02,45,17.40
2012,08,11,02,46,17.30
2012,08,11,02,47,17.30
2012,08,11,02,48,17.30
2012,08,11,02,49,17.30
2012,08,11,02,50,17.30
2012,08,11,02,51,17.30
2012,08,11,02,52,17.20
2012,08,11,02,53,17.20
2012,08,11,02,54,17.20
2012,08,11,02,55,17.20
2012,08,11,02,56,17.10
2012,08,11,02,57,17.10
2012,08,11,02,58,17.20
2012,08,11,02,59,17.20
2012,08,11,03,00,17.20
2012,08,11,03,01,17.20
2012,08,11,03,02,17.10
2012,08,11,03,03,17.10
2012,08,11,03,04,17.10
2012,08,11,03,05,17.10
2012,08,11,03,06,17.10
2012,08,11,03,07,17.10
2012,08,11,03,08,17.10
2012,08,11,03,09,17.10
2012,08,11,03,10,17.10
2012,08,11,03,11,17.00
2012,08,11,03,12,17.00
2012,08,11,03,13,17.10
2012,08,11,03,14,17.10
2012,08,11,03,15,17.10
2012,08,11,03,16,17.10
2012,08,11,03,17,17.10
2012,08,11,03,18,17.00
2012,08,11,03,19,17.00
2012,08,11,03,20,17.00
2012,08,11,03,21,17.00
2012,08,11,03,22,17.00
2012,08,11,03,23,17.00
2012,08,11,03,24,16.90
2012,08,11,03,25,16.90
2012,08,11,03,26,16.90
2012,08,11,03,27,16.90
2012,08,11,03,28,16.80
2012,08,11,03,29,16.80
2012,08,11,03,30,16.80
2012,08,11,03,31,16.80
2012,08,11,03,32,16.80
2012,08,11,03,33,16.80
2012,08,11,03,34,16.80
2012,08,11,03,35,16.80
2012,08,11,03,36,16.80
2012,08,11,03,37,16.80
2012,08,11,03,38,16.80
2012,08,11,03,39,16.70
2012,08,11,03,40,16.70
2012,08,11,03,41,16.70
2012,08,11,03,42,16.70
2012,08,11,03,43,16.60
2012,08,11,03,44,16.60
2012,08,11,03,45,16.50
2012,08,11,03,46,16.50
2012,08,11,03,47,16.40
2012,08,11,03,48,16.40
2012,08,11,03,49,16.40
2012,08,11,03,50,16.30
2012,08,11,03,51,16.30
2012,08,11,03,52,16.20
2012,08,11,03,53,16.20
2012,08,11,03,54,16.20
2012,08,11,03,55,16.10
2012,08,11,03,56,16.10
2012,08,11,03,57,16.10
2012,08,11,03,58,16.10
2012,08,11,03,59,16.10
2012,08,11,04,00,16.10
2012,08,11,04,01,16.00
2012,08,11,04,02,16.00
2012,08,11,04,03,16.00
2012,08,11,04,04,15.90
2012,08,11,04,05,15.90
2012,08,11,04,06,15.90
2012,08,11,04,07,15.90
2012,08,11,04,08,15.90
2012,08,11,04,09,15.90
2012,08,11,04,10,16.00
2012,08,11,04,11,16.00
2012,08,11,04,12,16.00
2012,08,11,04,13,16.00
2012,08,11,04,14,15.90
2012,08,11,04,15,15.90
2012,08,11,04,16,15.90
2012,08,11,04,17,15.90
2012,08,11,04,18,15.80
2012,08,11,04,19,15.80
2012,08,11,04,20,15.70
2012,08,11,04,21,15.70
2012,08,11,04,22,15.60
2012,08,11,04,23,15.50
2012,08,11,04,24,15.50
2012,08,11,04,25,15.40
2012,08,11,04,26,15.30
2012,08,11,04,27,15.20
2012,08,11,04,28,15.20
2012,08,11,04,29,15.20
2012,08,11,04,30,15.20
2012,08,11,04,31,15.30
2012,08,11,04,32,15.40
2012,08,11,04,33,15.40
2012,08,11,04,34,15.50
2012,08,11,04,35,15.60
2012,08,11,04,36,15.70
2012,08,11,04,37,15.80
2012,08,11,04,38,15.90
2012,08,11,04,39,16.00
2012,08,11,04,40,16.00
2012,08,11,04,41,16.10
2012,08,11,04,42,16.10
2012,08,11,04,43,16.10
2012,08,11,04,44,16.10
2012,08,11,04,45,16.10
2012,08,11,04,46,16.10
2012,08,11,04,47,16.10
2012,08,11,04,48,16.10
2012,08,11,04,49,16.10
2012,08,11,04,50,16.10
2012,08,11,04,51,16.10
2012,08,11,04,52,16.00
2012,08,11,04,53,16.00
2012,08,11,04,54,16.00
2012,08,11,04,55,16.00
2012,08,11,04,56,16.00
2012,08,11,04,57,15.90
2012,08,11,04,58,15.90
2012,08,11,04,59,15.90
2012,08,11,05,00,15.90
2012,08,11,05,01,15.90
2012,08,11,05,02,15.90
2012,08,11,05,03,15.90
2012,08,11,05,04,15.90
2012,08,11,05,05,15.90
2012,08,11,05,06,15.80
2012,08,11,05,07,15.80
2012,08,11,05,08,15.80
2012,08,11,05,09,15.80
2012,08,11,05,10,15.80
2012,08,11,05,11,15.80
2012,08,11,05,12,15.70
2012,08,11,05,13,15.70
2012,08,11,05,14,15.70
2012,08,11,05,15,15.70
2012,08,11,05,16,15.70
2012,08,11,05,17,15.70
2012,08,11,05,18,15.70
2012,08,11,05,19,15.70
2012,08,11,05,20,15.60
2012,08,11,05,21,15.60
2012,08,11,05,22,15.60
2012,08,11,05,23,15.60
2012,08,11,05,24,15.60
2012,08,11,05,25,15.60
2012,08,11,05,26,15.60
2012,08,11,05,27,15.60
2012,08,11,05,28,15.60
2012,08,11,05,29,15.50
2012,08,11,05,30,15.50
2012,08,11,05,31,15.50
2012,08,11,05,32,15.50
2012,08,11,05,33,15.50
2012,08,11,05,34,15.50
2012,08,11,05,35,15.50
2012,08,11,05,36,15.50
2012,08,11,05,37,15.50
2012,08,11,05,38,15.60
2012,08,11,05,39,15.60
2012,08,11,05,40,15.60
2012,08,11,05,41,15.60
2012,08,11,05,42,15.60
2012,08,11,05,43,15.60
2012,08,11,05,44,15.60
2012,08,11,05,45,15.60
2012,08,11,05,46,15.60
2012,08,11,05,47,15.50
2012,08,11,05,48,15.50
2012,08,11,05,49,15.50
2012,08,11,05,50,15.50
2012,08,11,05,51,15.40
2012,08,11,05,52,15.40
2012,08,11,05,53,15.40
2012,08,11,05,54,15.30
2012,08,11,05,55,15.30
2012,08,11,05,56,15.30
2012,08,11,05,57,15.30
2012,08,11,05,58,15.20
2012,08,11,05,59,15.20
2012,08,11,06,00,15.20
2012,08,11,06,01,15.30
2012,08,11,06,02,15.30
2012,08,11,06,03,15.30
2012,08,11,06,04,15.30
2012,08,11,06,05,15.30
2012,08,11,06,06,15.30
2012,08,11,06,07,15.30
2012,08,11,06,08,15.30
2012,08,11,06,09,15.30
2012,08,11,06,10,15.30
2012,08,11,06,11,15.30
2012,08,11,06,12,15.30
2012,08,11,06,13,15.30
2012,08,11,06,14,15.30
2012,08,11,06,15,15.30
2012,08,11,06,16,15.20
2012,08,11,06,17,15.20
2012,08,11,06,18,15.20
2012,08,11,06,19,15.10
2012,08,11,06,20,15.00
2012,08,11,06,21,15.00
2012,08,11,06,22,15.00
2012,08,11,06,23,15.00
2012,08,11,06,24,15.00
2012,08,11,06,25,15.00
2012,08,11,06,26,14.90
2012,08,11,06,27,14.80
2012,08,11,06,28,14.80
2012,08,11,06,29,14.70
2012,08,11,06,30,14.70
2012,08,11,06,31,14.60
2012,08,11,06,32,14.60
2012,08,11,06,33,14.50
2012,08,11,06,34,14.50
2012,08,11,06,35,14.40
2012,08,11,06,36,14.40
2012,08,11,06,37,14.40
2012,08,11,06,38,14.30
2012,08,11,06,39,14.30
2012,08,11,06,40,14.30
2012,08,11,06,41,14.30
2012,08,11,06,42,14.30
2012,08,11,06,43,14.20
2012,08,11,06,44,14.20
2012,08,11,06,45,14.20
2012,08,11,06,46,14.20
2012,08,11,06,47,14.20
2012,08,11,06,48,14.10
2012,08,11,06,49,14.10
2012,08,11,06,50,14.10
2012,08,11,06,51,14.10
2012,08,11,06,52,14.20
2012,08,11,06,53,14.20
2012,08,11,06,54,14.30
2012,08,11,06,55,14.30
2012,08,11,06,56,14.40
2012,08,11,06,57,14.40
2012,08,11,06,58,14.50
2012,08,11,06,59,14.60
2012,08,11,07,00,14.70
2012,08,11,07,01,14.70
2012,08,11,07,02,14.80
2012,08,11,07,03,14.80
2012,08,11,07,04,15.00
2012,08,11,07,05,15.00
2012,08,11,07,06,15.00
2012,08,11,07,07,15.00
2012,08,11,07,08,15.00
2012,08,11,07,09,15.10
2012,08,11,07,10,15.20
2012,08,11,07,11,15.30
2012,08,11,07,12,15.30
2012,08,11,07,13,15.40
2012,08,11,07,14,15.40
2012,08,11,07,15,15.50
2012,08,11,07,16,15.60
2012,08,11,07,17,15.60
2012,08,11,07,18,15.70
2012,08,11,07,19,15.70
2012,08,11,07,20,15.80
2012,08,11,07,21,15.80
2012,08,11,07,22,15.80
2012,08,11,07,23,15.90
2012,08,11,07,24,15.90
2012,08,11,07,25,16.00
2012,08,11,07,26,16.00
2012,08,11,07,27,16.10
2012,08,11,07,28,16.10
2012,08,11,07,29,16.10
2012,08,11,07,30,16.10
2012,08,11,07,31,16.10
2012,08,11,07,32,16.10
2012,08,11,07,33,16.20
2012,08,11,07,34,16.20
2012,08,11,07,35,16.20
2012,08,11,07,36,16.20
2012,08,11,07,37,16.20
2012,08,11,07,38,16.20
2012,08,11,07,39,16.30
2012,08,11,07,40,16.30
2012,08,11,07,41,16.30
2012,08,11,07,42,16.30
2012,08,11,07,43,16.30
2012,08,11,07,44,16.40
2012,08,11,07,45,16.40
2012,08,11,07,46,16.40
2012,08,11,07,47,16.50
2012,08,11,07,48,16.50
2012,08,11,07,49,16.50
2012,08,11,07,50,16.50
2012,08,11,07,51,16.60
2012,08,11,07,52,16.60
2012,08,11,07,53,16.60
2012,08,11,07,54,16.70
2012,08,11,07,55,16.70
2012,08,11,07,56,16.70
2012,08,11,07,57,16.70
2012,08,11,07,58,16.70
2012,08,11,07,59,16.80
2012,08,11,08,00,16.80
2012,08,11,08,01,16.80
2012,08,11,08,02,16.80
2012,08,11,08,03,16.90
2012,08,11,08,04,16.90
2012,08,11,08,05,16.90
2012,08,11,08,06,16.90
2012,08,11,08,07,17.00
2012,08,11,08,08,17.00
2012,08,11,08,09,17.00
2012,08,11,08,10,17.10
2012,08,11,08,11,17.10
2012,08,11,08,12,17.10
2012,08,11,08,13,17.10
2012,08,11,08,14,17.20
2012,08,11,08,15,17.20
2012,08,11,08,16,17.20
2012,08,11,08,17,17.20
2012,08,11,08,18,17.20
2012,08,11,08,19,17.20
2012,08,11,08,20,17.20
2012,08,11,08,21,17.20
2012,08,11,08,22,17.20
2012,08,11,08,23,17.20
2012,08,11,08,24,17.30
2012,08,11,08,25,17.30
2012,08,11,08,26,17.30
2012,08,11,08,27,17.30
2012,08,11,08,28,17.30
2012,08,11,08,29,17.30
2012,08,11,08,30,17.30
2012,08,11,08,31,17.40
2012,08,11,08,32,17.40
2012,08,11,08,33,17.40
2012,08,11,08,34,17.40
2012,08,11,08,35,17.40
2012,08,11,08,36,17.40
2012,08,11,08,37,17.40
2012,08,11,08,38,17.40
2012,08,11,08,39,17.50
2012,08,11,08,40,17.50
2012,08,11,08,41,17.60
2012,08,11,08,42,17.60
2012,08,11,08,43,17.60
2012,08,11,08,44,17.60
2012,08,11,08,45,17.60
2012,08,11,08,46,17.60
2012,08,11,08,47,17.60
2012,08,11,08,48,17.60
2012,08,11,08,49,17.60
2012,08,11,08,50,17.60
2012,08,11,08,51,17.60
2012,08,11,08,52,17.70
2012,08,11,08,53,17.70
2012,08,11,08,54,17.70
2012,08,11,08,55,17.70
2012,08,11,08,56,17.70
2012,08,11,08,57,17.70
2012,08,11,08,58,17.70
2012,08,11,08,59,17.80
2012,08,11,09,00,17.80
2012,08,11,09,01,17.80
2012,08,11,09,02,17.90
2012,08,11,09,03,17.90
2012,08,11,09,04,17.90
2012,08,11,09,05,18.00
2012,08,11,09,06,18.00
2012,08,11,09,07,18.00
2012,08,11,09,08,18.10
2012,08,11,09,09,18.10
2012,08,11,09,10,18.10
2012,08,11,09,11,18.20
2012,08,11,09,12,18.20
2012,08,11,09,13,18.20
2012,08,11,09,14,18.20
2012,08,11,09,15,18.20
2012,08,11,09,16,18.20
2012,08,11,09,17,18.30
2012,08,11,09,18,18.30
2012,08,11,09,19,18.40
2012,08,11,09,20,18.50
2012,08,11,09,21,18.50
2012,08,11,09,22,18.60
2012,08,11,09,23,18.60
2012,08,11,09,24,18.60
2012,08,11,09,25,18.60
2012,08,11,09,26,18.60
2012,08,11,09,27,18.60
2012,08,11,09,28,18.70
2012,08,11,09,29,18.70
2012,08,11,09,30,18.60
2012,08,11,09,31,18.60
2012,08,11,09,32,18.40
2012,08,11,09,33,18.40
2012,08,11,09,34,18.40
2012,08,11,09,35,18.40
2012,08,11,09,36,18.40
2012,08,11,09,37,18.30
2012,08,11,09,38,18.40
2012,08,11,09,39,18.40
2012,08,11,09,40,18.30
2012,08,11,09,41,18.30
2012,08,11,09,42,18.30
2012,08,11,09,43,18.20
2012,08,11,09,44,18.20
2012,08,11,09,45,18.20
2012,08,11,09,46,18.20
2012,08,11,09,47,18.20
2012,08,11,09,48,18.10
2012,08,11,09,49,18.10
2012,08,11,09,50,18.00
2012,08,11,09,51,17.90
2012,08,11,09,52,17.90
2012,08,11,09,53,17.90
2012,08,11,09,54,17.90
2012,08,11,09,55,17.90
2012,08,11,09,56,17.90
2012,08,11,09,57,17.90
2012,08,11,09,58,17.90
2012,08,11,09,59,17.90
2012,08,11,10,00,18.00
2012,08,11,10,01,18.00
2012,08,11,10,02,18.10
2012,08,11,10,03,18.20
2012,08,11,10,04,18.30
2012,08,11,10,05,18.30
2012,08,11,10,06,18.20
2012,08,11,10,07,18.20
2012,08,11,10,08,18.20
2012,08,11,10,09,18.30
2012,08,11,10,10,18.30
2012,08,11,10,11,18.30
2012,08,11,10,12,18.30
2012,08,11,10,13,18.30
2012,08,11,10,14,18.30
2012,08,11,10,15,18.30
2012,08,11,10,16,18.30
2012,08,11,10,17,18.20
2012,08,11,10,18,18.20
2012,08,11,10,19,18.30
2012,08,11,10,20,18.30
2012,08,11,10,21,18.30
2012,08,11,10,22,18.40
2012,08,11,10,23,18.30
2012,08,11,10,24,18.30
2012,08,11,10,25,18.30
2012,08,11,10,26,18.30
2012,08,11,10,27,18.30
2012,08,11,10,28,18.30
2012,08,11,10,29,18.30
2012,08,11,10,30,18.40
2012,08,11,10,31,18.40
2012,08,11,10,32,18.40
2012,08,11,10,33,18.50
2012,08,11,10,34,18.50
2012,08,11,10,35,18.50
2012,08,11,10,36,18.40
2012,08,11,10,37,18.40
2012,08,11,10,38,18.40
2012,08,11,10,39,18.40
2012,08,11,10,40,18.40
2012,08,11,10,41,18.50
2012,08,11,10,42,18.50
2012,08,11,10,43,18.50
2012,08,11,10,44,18.50
2012,08,11,10,45,18.40
2012,08,11,10,46,18.40
2012,08,11,10,47,18.40
2012,08,11,10,48,18.40
2012,08,11,10,49,18.40
2012,08,11,10,50,18.40
2012,08,11,10,51,18.40
2012,08,11,10,52,18.40
2012,08,11,10,53,18.50
2012,08,11,10,54,18.50
2012,08,11,10,55,18.50
2012,08,11,10,56,18.50
2012,08,11,10,57,18.60
2012,08,11,10,58,18.60
2012,08,11,10,59,18.70
2012,08,11,11,00,18.70
2012,08,11,11,01,18.70
2012,08,11,11,02,18.70
2012,08,11,11,03,18.80
2012,08,11,11,04,19.00
2012,08,11,11,05,19.10
2012,08,11,11,06,19.10
2012,08,11,11,07,19.10
2012,08,11,11,08,19.20
2012,08,11,11,09,19.20
2012,08,11,11,10,19.20
2012,08,11,11,11,19.20
2012,08,11,11,12,19.20
2012,08,11,11,13,19.10
2012,08,11,11,14,19.20
2012,08,11,11,15,19.20
2012,08,11,11,16,19.30
2012,08,11,11,17,19.30
2012,08,11,11,18,19.30
2012,08,11,11,19,19.30
2012,08,11,11,20,19.30
2012,08,11,11,21,19.30
2012,08,11,11,22,19.30
2012,08,11,11,23,19.30
2012,08,11,11,24,19.30
2012,08,11,11,25,19.30
2012,08,11,11,26,19.30
2012,08,11,11,27,19.30
2012,08,11,11,28,19.30
2012,08,11,11,29,19.30
2012,08,11,11,30,19.20
2012,08,11,11,31,19.20
2012,08,11,11,32,19.20
2012,08,11,11,33,19.20
2012,08,11,11,34,19.20
2012,08,11,11,35,19.20
2012,08,11,11,36,19.30
2012,08,11,11,37,19.30
2012,08,11,11,38,19.40
2012,08,11,11,39,19.40
2012,08,11,11,40,19.40
2012,08,11,11,41,19.50
2012,08,11,11,42,19.50
2012,08,11,11,43,19.60
2012,08,11,11,44,19.70
2012,08,11,11,45,19.70
2012,08,11,11,46,19.80
2012,08,11,11,47,19.90
2012,08,11,11,48,20.00
2012,08,11,11,49,20.00
2012,08,11,11,50,20.00
2012,08,11,11,51,20.10
2012,08,11,11,52,20.10
2012,08,11,11,53,20.20
2012,08,11,11,54,20.20
2012,08,11,11,55,20.20
2012,08,11,11,56,20.30
2012,08,11,11,57,20.30
2012,08,11,11,58,20.30
2012,08,11,11,59,20.30
2012,08,11,12,00,20.40
2012,08,11,12,01,20.40
2012,08,11,12,02,20.40
2012,08,11,12,03,20.50
2012,08,11,12,04,20.60
2012,08,11,12,05,20.60
2012,08,11,12,06,20.60
2012,08,11,12,07,20.60
2012,08,11,12,08,20.60
2012,08,11,12,09,20.70
2012,08,11,12,10,20.70
2012,08,11,12,11,20.70
2012,08,11,12,12,20.60
2012,08,11,12,13,20.60
2012,08,11,12,14,20.60
2012,08,11,12,15,20.70
2012,08,11,12,16,20.70
2012,08,11,12,17,20.70
2012,08,11,12,18,20.70
2012,08,11,12,19,20.80
2012,08,11,12,20,20.90
2012,08,11,12,21,20.90
2012,08,11,12,22,21.00
2012,08,11,12,23,21.10
2012,08,11,12,24,21.10
2012,08,11,12,25,21.10
2012,08,11,12,26,21.10
2012,08,11,12,27,21.10
2012,08,11,12,28,21.10
2012,08,11,12,29,21.10
2012,08,11,12,30,21.20
2012,08,11,12,31,21.20
2012,08,11,12,32,21.30
2012,08,11,12,33,21.30
2012,08,11,12,34,21.20
2012,08,11,12,35,21.20
2012,08,11,12,36,21.20
2012,08,11,12,37,21.20
2012,08,11,12,38,21.20
2012,08,11,12,39,21.20
2012,08,11,12,40,21.20
2012,08,11,12,41,21.20
2012,08,11,12,42,21.30
2012,08,11,12,43,21.40
2012,08,11,12,44,21.40
2012,08,11,12,45,21.40
2012,08,11,12,46,21.40
2012,08,11,12,47,21.40
2012,08,11,12,48,21.30
2012,08,11,12,49,21.30
2012,08,11,12,50,21.40
2012,08,11,12,51,21.40
2012,08,11,12,52,21.40
2012,08,11,12,53,21.30
2012,08,11,12,54,21.30
2012,08,11,12,55,21.30
2012,08,11,12,56,21.40
2012,08,11,12,57,21.40
2012,08,11,12,58,21.40
2012,08,11,12,59,21.40
2012,08,11,13,00,21.40
2012,08,11,13,01,21.40
2012,08,11,13,02,21.40
2012,08,11,13,03,21.20
2012,08,11,13,04,21.20
2012,08,11,13,05,21.20
2012,08,11,13,06,21.20
2012,08,11,13,07,21.00
2012,08,11,13,08,20.90
2012,08,11,13,09,21.00
2012,08,11,13,10,21.00
2012,08,11,13,11,21.10
2012,08,11,13,12,21.10
2012,08,11,13,13,21.10
2012,08,11,13,14,21.20
2012,08,11,13,15,21.30
2012,08,11,13,16,21.40
2012,08,11,13,17,21.40
2012,08,11,13,18,21.40
2012,08,11,13,19,21.40
2012,08,11,13,20,21.40
2012,08,11,13,21,21.40
2012,08,11,13,22,21.40
2012,08,11,13,23,21.40
2012,08,11,13,24,21.40
2012,08,11,13,25,21.40
2012,08,11,13,26,21.50
2012,08,11,13,27,21.50
2012,08,11,13,28,21.50
2012,08,11,13,29,21.50
2012,08,11,13,30,21.40
2012,08,11,13,31,21.50
2012,08,11,13,32,21.60
2012,08,11,13,33,21.70
2012,08,11,13,34,21.80
2012,08,11,13,35,21.90
2012,08,11,13,36,22.00
2012,08,11,13,37,22.00
2012,08,11,13,38,22.00
2012,08,11,13,39,21.90
2012,08,11,13,40,21.90
2012,08,11,13,41,22.10
2012,08,11,13,42,22.10
2012,08,11,13,43,22.20
2012,08,11,13,44,22.20
2012,08,11,13,45,22.30
2012,08,11,13,46,22.30
2012,08,11,13,47,22.30
2012,08,11,13,48,22.30
2012,08,11,13,49,22.30
2012,08,11,13,50,22.30
2012,08,11,13,51,22.30
2012,08,11,13,52,22.40
2012,08,11,13,53,22.50
2012,08,11,13,54,22.60
2012,08,11,13,55,22.70
2012,08,11,13,56,22.70
2012,08,11,13,57,22.80
2012,08,11,13,58,22.80
2012,08,11,13,59,22.70
2012,08,11,14,00,22.80
2012,08,11,14,01,22.80
2012,08,11,14,02,22.80
2012,08,11,14,03,22.70
2012,08,11,14,04,22.70
2012,08,11,14,05,22.60
2012,08,11,14,06,22.60
2012,08,11,14,07,22.50
2012,08,11,14,08,22.50
2012,08,11,14,09,22.60
2012,08,11,14,10,22.60
2012,08,11,14,11,22.50
2012,08,11,14,12,22.50
2012,08,11,14,13,22.50
2012,08,11,14,14,22.50
2012,08,11,14,15,22.40
2012,08,11,14,16,22.40
2012,08,11,14,17,22.40
2012,08,11,14,18,22.50
2012,08,11,14,19,22.70
2012,08,11,14,20,22.90
2012,08,11,14,21,23.10
2012,08,11,14,22,23.30
2012,08,11,14,23,23.30
2012,08,11,14,24,23.30
2012,08,11,14,25,23.40
2012,08,11,14,26,23.40
2012,08,11,14,27,23.50
2012,08,11,14,28,23.50
2012,08,11,14,29,23.50
2012,08,11,14,30,23.50
2012,08,11,14,31,23.50
2012,08,11,14,32,23.50
2012,08,11,14,33,23.60
2012,08,11,14,34,23.70
2012,08,11,14,35,23.70
2012,08,11,14,36,23.60
2012,08,11,14,37,23.50
2012,08,11,14,38,23.50
2012,08,11,14,39,23.50
2012,08,11,14,40,23.60
2012,08,11,14,41,23.60
2012,08,11,14,42,23.60
2012,08,11,14,43,23.70
2012,08,11,14,44,23.90
2012,08,11,14,45,24.00
2012,08,11,14,46,24.20
2012,08,11,14,47,24.30
2012,08,11,14,48,24.50
2012,08,11,14,49,24.70
2012,08,11,14,50,24.60
2012,08,11,14,51,24.50
2012,08,11,14,52,24.40
2012,08,11,14,53,24.40
2012,08,11,14,54,24.20
2012,08,11,14,55,24.10
2012,08,11,14,56,24.00
2012,08,11,14,57,23.80
2012,08,11,14,58,23.70
2012,08,11,14,59,23.70
2012,08,11,15,00,23.60
2012,08,11,15,01,23.70
2012,08,11,15,02,23.70
2012,08,11,15,03,23.80
2012,08,11,15,04,23.80
2012,08,11,15,05,23.70
2012,08,11,15,06,23.70
2012,08,11,15,07,23.70
2012,08,11,15,08,23.80
2012,08,11,15,09,23.90
2012,08,11,15,10,23.90
2012,08,11,15,11,24.10
2012,08,11,15,12,24.10
2012,08,11,15,13,24.00
2012,08,11,15,14,24.00
2012,08,11,15,15,24.00
2012,08,11,15,16,24.00
2012,08,11,15,17,24.00
2012,08,11,15,18,24.00
2012,08,11,15,19,24.00
2012,08,11,15,20,24.00
2012,08,11,15,21,24.10
2012,08,11,15,22,24.10
2012,08,11,15,23,24.10
2012,08,11,15,24,24.10
2012,08,11,15,25,24.10
2012,08,11,15,26,24.10
2012,08,11,15,27,24.10
2012,08,11,15,28,24.10
2012,08,11,15,29,24.20
2012,08,11,15,30,24.30
2012,08,11,15,31,24.30
2012,08,11,15,32,24.30
2012,08,11,15,33,24.30
2012,08,11,15,34,24.30
2012,08,11,15,35,24.30
2012,08,11,15,36,24.40
2012,08,11,15,37,24.40
2012,08,11,15,38,24.40
2012,08,11,15,39,24.50
2012,08,11,15,40,24.70
2012,08,11,15,41,24.80
2012,08,11,15,42,24.80
2012,08,11,15,43,24.80
2012,08,11,15,44,24.80
2012,08,11,15,45,24.80
2012,08,11,15,46,24.80
2012,08,11,15,47,24.90
2012,08,11,15,48,24.90
2012,08,11,15,49,24.90
2012,08,11,15,50,24.90
2012,08,11,15,51,24.80
2012,08,11,15,52,24.90
2012,08,11,15,53,24.80
2012,08,11,15,54,24.80
2012,08,11,15,55,24.80
2012,08,11,15,56,24.80
2012,08,11,15,57,24.80
2012,08,11,15,58,24.90
2012,08,11,15,59,24.90
2012,08,11,16,00,25.00
2012,08,11,16,01,25.00
2012,08,11,16,02,25.10
2012,08,11,16,03,25.20
2012,08,11,16,04,25.20
2012,08,11,16,05,25.30
2012,08,11,16,06,25.20
2012,08,11,16,07,25.10
2012,08,11,16,08,25.10
2012,08,11,16,09,25.10
2012,08,11,16,10,25.00
2012,08,11,16,11,25.00
2012,08,11,16,12,25.10
2012,08,11,16,13,25.10
2012,08,11,16,14,25.10
2012,08,11,16,15,25.10
2012,08,11,16,16,25.10
2012,08,11,16,17,25.10
2012,08,11,16,18,25.20
2012,08,11,16,19,25.20
2012,08,11,16,20,25.10
2012,08,11,16,21,25.10
2012,08,11,16,22,25.20
2012,08,11,16,23,25.20
2012,08,11,16,24,25.20
2012,08,11,16,25,25.20
2012,08,11,16,26,25.20
2012,08,11,16,27,25.10
2012,08,11,16,28,25.10
2012,08,11,16,29,25.20
2012,08,11,16,30,25.20
2012,08,11,16,31,25.20
2012,08,11,16,32,25.20
2012,08,11,16,33,25.20
2012,08,11,16,34,25.20
2012,08,11,16,35,25.30
2012,08,11,16,36,25.30
2012,08,11,16,37,25.40
2012,08,11,16,38,25.50
2012,08,11,16,39,25.60
2012,08,11,16,40,25.70
2012,08,11,16,41,25.70
2012,08,11,16,42,25.60
2012,08,11,16,43,25.50
2012,08,11,16,44,25.40
2012,08,11,16,45,25.30
2012,08,11,16,46,25.20
2012,08,11,16,47,25.20
2012,08,11,16,48,25.30
2012,08,11,16,49,25.40
2012,08,11,16,50,25.50
2012,08,11,16,51,25.60
2012,08,11,16,52,25.70
2012,08,11,16,53,25.70
2012,08,11,16,54,25.70
2012,08,11,16,55,25.70
2012,08,11,16,56,25.70
2012,08,11,16,57,25.70
2012,08,11,16,58,25.70
2012,08,11,16,59,25.80
2012,08,11,17,00,25.90
2012,08,11,17,01,25.90
2012,08,11,17,02,25.90
2012,08,11,17,03,25.90
2012,08,11,17,04,25.90
2012,08,11,17,05,25.90
2012,08,11,17,06,25.90
2012,08,11,17,07,25.90
2012,08,11,17,08,25.90
2012,08,11,17,09,25.90
2012,08,11,17,10,25.90
2012,08,11,17,11,25.80
2012,08,11,17,12,25.80
2012,08,11,17,13,25.90
2012,08,11,17,14,25.90
2012,08,11,17,15,25.90
2012,08,11,17,16,25.90
2012,08,11,17,17,25.90
2012,08,11,17,18,25.90
2012,08,11,17,19,25.90